Voltar ao catálogo

STARLINK-4572

AtivoComunicaçõesSSO
NORAD 53692·PAYLOAD·🇺🇸 United States

Lançado Aug 31, 2022 de Vandenberg Space Force Base

Loading…

Próximas Passagens (próximas 24 horas)

TLE

AtualizadoSource: CelesTrak SupGP

Época: Sep 15, 2026, 03:12 UTC

1 53692C 22105AW  26258.13381944  .00094039  00000+0  30777-2 0  2589
2 53692  97.5940 148.5309 0002181  92.4092 300.7332 15.31695736    14

Acompanhe STARLINK-4572 em tempo real com AllMySat

Download on the App Store